Regional Weather Roundup
Issued by NWS

Home | Current Version | Previous Version | Graphics & Text | Print | Product List | Glossary On
Versions: 1 2 3 4 5 6 7 8 9 10 11 12 13 14 15 16 17 18 19 20 21 22 23 24 25 26 27 28 29 30 31 32 33 34 35 36 37 38 39 40 41 42 43 44 45 46 47 48 49 50
354
ASUS43 KDTX 181501
RWRMI
MICHIGAN HOURLY REGIONAL WEATHER ROUNDUP
NATIONAL WEATHER SERVICE DETROIT/PONTIAC MI
1000 AM EST THU JAN 18 2018

NOTE: "FAIR" INDICATES FEW OR NO CLOUDS BELOW 12,000 FEET WITH NO
SIGNIFICANT WEATHER AND/OR OBSTRUCTION TO VISIBILITY.

MIZ047>049-052>055-059>063-066>070-074>076-081>083-181600-
SOUTHEAST LOWER MICHIGAN

CITY           SKY/WX    TMP DP  RH WIND       PRES   REMARKS
ADRIAN         FAIR      17   9  70 W10       30.12S WCI   5
ALMA           CLOUDY    26  21  81 SW16      30.00R WCI  14
ANN ARBOR      FAIR      18  10  71 SW14      30.08F WCI   4
BAD AXE        FAIR      21  15  79 SW7       29.99S WCI  12
CARO           PTSUNNY   21  16  80 SW12      30.00S WCI   9
DETROIT CITY   CLOUDY    18  10  71 SW10G21   30.09S WCI   6
DETROIT        FAIR      18  10  71 SW15      30.11S WCI   4
FLINT          CLOUDY    21  15  78 SW13      30.04R WCI   9
GROSSE ILE     FAIR      18  10  70 SW12      30.11S WCI   5
HILLSDALE      FAIR      19   9  63 W13G22    30.07S WCI   7
HOWELL         CLOUDY    20  16  83 SW13G20   30.04S WCI   7

CITY           SKY/WX    TMP DP  RH WIND       PRES   REMARKS
JACKSON        FAIR      17  10  74 SW16      30.07S WCI   2
LAMBERTVILLE   FAIR      18   9  66 W15G21    30.14R WCI   4
LANSING        CLOUDY    20  15  81 SW16      30.04R WCI   6
LAPEER         CLOUDY    22  16  77 W12G18    30.03R WCI  10
MASON          CLOUDY    21  13  71 SW12G18   30.05S WCI   9
MONROE         FAIR      18   8  65 SW14      30.12S WCI   4
MT. CLEMENS    CLOUDY    19   9  64 SW12      30.03R WCI   7
PONTIAC        CLOUDY    19  14  81 W14G21    30.03S WCI   6
PORT HOPE        N/A     21  14  74 SW12G20   29.96S WCI   9
PORT HURON     CLOUDY    18  10  73 SW8       30.06S WCI   7
TRI CITIES     CLOUDY    21  17  84 S10       30.00R WCI  10
MIDLAND        PTSUNNY   26  20  76 SW9       29.98R WCI  17
TROY           CLOUDY    18  11  73 SW10      30.09S WCI   7
SAGINAW HB     CLOUDY    21  18  86 SW14      30.01R WCI   8
$$
MIZ043>046-050>051-056>058-064>065-071>073-077>080-181600-
SOUTHWEST LOWER MICHIGAN

CITY           SKY/WX    TMP DP  RH WIND       PRES   REMARKS
BATTLE CREEK   FAIR      18  11  74 SW17      30.07S WCI   3
BENTON HARBOR  FAIR      21  14  74 SW17G29   30.11S WCI   7
BIG RAPIDS     FAIR      25  19  76 SW12G18   29.95R WCI  15
COLDWATER      FAIR      17  10  72 SW14G20   30.10F WCI   3
HOLLAND        CLOUDY    26  20  77 MISG      30.06R
GRAND RAPIDS   CLOUDY    25  19  78 SW22G29   30.03R WCI  10
IONIA          CLOUDY    25  21  82 SW18      30.00S WCI  12
KALAMAZOO      FAIR      18  10  71 SW14      30.09S WCI   4
LUDINGTON      PTSUNNY   28  24  82 SW15G21   29.95S WCI  17
MARSHALL       FAIR      17   9  71 SW15      30.07S WCI   2
MOUNT PLEASANT FAIR      27  19  73 SW12      29.97R WCI  17
MUSKEGON       PTSUNNY   28  21  75 SW18      30.02S WCI  15
SOUTH HAVEN    CLOUDY    26  19  76 SW20G31   30.08R WCI  12
$$
MIZ016>042-181600-
NORTHERN LOWER MICHIGAN

CITY           SKY/WX    TMP DP  RH WIND       PRES   REMARKS
ALPENA         CLOUDY    22  18  85 S9        29.91R WCI  12
BEAVER ISLAND  PTSUNNY   30  24  78 W13G18    29.86R WCI  20
BELLAIRE       FAIR      26  22  86 S7        29.90S WCI  18
CADILLAC       CLOUDY    23  19  87 SW15      29.89R WCI  10
CHARLEVOIX     FAIR      29  24  80 SW8       29.90R WCI  21
FRANKFORT      FAIR      31  25  78 W12       29.93R WCI  21
GAYLORD        CLOUDY    22  21  96 W13G21    29.84R WCI  10
GRAYLING       CLOUDY    22  18  83 W6        29.89R WCI  15
HARBOR SPRINGS CLOUDY    29  24  81 SW13      29.86R WCI  19
HOUGHTON LAKE  CLOUDY    24  18  77 SW12      29.90S WCI  13
MANISTEE       FAIR      29  23  78 SW9       29.94R WCI  20
OSCODA         PTSUNNY   22  15  75 SW12      29.94S WCI  10
PELLSTON       CLOUDY    29  22  75 SW7       29.86R WCI  22
ROGERS CITY    CLOUDY    25  19  78 S7        29.88S WCI  17
TRAVERSE CITY  CLOUDY    28  21  75 SW8       29.89S WCI  20
$$
MIZ007>008-015-181600-
EASTERN UPPER MICHIGAN

CITY           SKY/WX    TMP DP  RH WIND       PRES   REMARKS
KINROSS        FAIR      23  14  68 W7        29.84R WCI  15
MACKINAC ISLAN FAIR      25  20  80 W5        29.85R WCI  20
NEWBERRY       FAIR      17  14  85 SW9       29.81S WCI   6
S. S. MARIE    FAIR      21  12  68 SW5       29.82R WCI  15
MUNISING         N/A     19  14  81 S10       29.80F WCI   7
$$
MIZ004>006-011>014-085-181600-
CENTRAL UPPER MICHIGAN

CITY           SKY/WX    TMP DP  RH WIND       PRES   REMARKS
MANISTIQUE     FAIR      22  18  81 SW7       29.83S WCI  14
ESCANABA       FAIR      19  14  81 S5        29.85S WCI  12
MENOMINEE      FAIR      22  16  78 SW8       29.88F WCI  12
SAWYER-GWINN   SUNNY     14  10  85 S8        29.77S WCI   3
$$
MIZ001>003-009>011-084-181600-
WESTERN UPPER MICHIGAN

CITY           SKY/WX    TMP DP  RH WIND       PRES   REMARKS
IRON MOUNTAIN  FAIR      19  14  81 SE3       29.77F
HOUGHTON       PTSUNNY   20  14  77 S6        29.66F WCI  12
COPPER HARBOR    N/A     26  20  77 W9G18     29.70F WCI  17
IRONWOOD       CLOUDY    27  19  72 SW9       29.72R WCI  18
$$

ABBREVIATIONS USED IN REMARKS
   TC - TEMPERATURE IN CELSIUS
  WCI - WIND CHILL INDEX
   HX - HEAT INDEX
  VSB - VISIBILITY





USA.gov is the U.S. government's official web portal to all federal, state and local government web resources and services.